Pagrindinis puslapis
METAR-TAF:

METAR-TAF

Oro uostai :

Oro pajėgų bazė

Ismailija, Egiptas

platuma: 30-35-54N, ilguma: 032-14-13E, Aukštis: 13 m

Dabartinis oras

Ataskaita buvo paskelbta 11 valandos ir 32 minutes, ne 16:00 UTC
Vėjas 9 kt iš Šiaurės
Temperatūra 28°C
Drėgmė 45%
Slėgis 1012 hPa
Matomumas 10 km arba daugiau
nėra debesų žemiau 1500 m ir nėra kamuolinių lietaus debesų

METAR: HEIS 181600Z 36009KT CAVOK 28/15 Q1012

Laikas: 05:32 (03:32 UTC)


TAF: trūkstamas

Orai ataskaitas ir orų prognozės (METAR, TAF).

turimą stotys yra geltonos ir raudonos taškus žemėlapyje.

Perkelti pele per norėdami pamatyti stoties vardą.

Tada spustelėkite, norėdami matyti oro stebėjimo ir prognozės.

Norėdami pakeisti žemėlapį: spustelėkite ant žalios mygtukų su juodo kryžiaus žemyn,; žalią mygtuką su brūkšneliu, jei norite nutolinti; arba žalių rodyklių gretimoms žemėlapius.


METAR-TAF: